View from above orbital plane
|
View from above satellite
|
Ground track
|
The orbit data is extracted from the following two-line orbital elements,
1 00020U 59007A 21026.92961507 .00000116 00000-0 50370-4 0 9990
2 00020 33.3440 105.8791 1665832 12.2388 351.4027 11.55794581256468
Epoch (UTC): | 26 January 2021 22:18:38 |
Eccentricity: | 0.1665832 |
inclination: | 33.3440° |
perigee height: | 508 km |
apogee height: | 3261 km |
right ascension of ascending node: | 105.8791° |
argument of perigee: | 12.2388° |
revolutions per day: | 11.55794581 |
mean anomaly at epoch: | 351.4027° |
orbit number at epoch: | 25646 |
The dashed part of the orbit path shows where the satellite is in the earth's shadow,
|
|